Regional Weather Roundup
Issued by NWS

Home | Current Version | Previous Version | Text Only | Print | Product List | Glossary On
Versions: 1 2 3 4 5 6 7 8 9 10 11 12 13 14 15 16 17 18 19 20 21 22 23 24 25 26 27 28 29 30 31 32 33 34 35 36 37 38 39 40 41 42 43 44 45 46 47 48 49 50
000
ASUS44 KLUB 010401
RWRTX
WEST TEXAS WEATHER ROUNDUP
NATIONAL WEATHER SERVICE LUBBOCK TX
1100 PM CDT TUE MAY 31 2016

NOTE: "FAIR" INDICATES FEW OR NO CLOUDS BELOW 12,000 FEET WITH NO
SIGNIFICANT WEATHER AND/OR OBSTRUCTIONS TO VISIBILITY.

TXZ004-006>008-010-012-014-016-OKZ002-010500-
TEXAS PANHANDLE/OKLAHOMA PANHANDLE

CITY           SKY/WX    TMP DP  RH WIND       PRES   REMARKS
AMARILLO       CLOUDY    63  56  78 E12       30.03R
BORGER         CLOUDY    67  56  67 NE10      30.03R
CANADIAN       CLOUDY    65  58  77 E3        30.00S
DALHART        CLOUDY    64  55  72 E12       30.06R
DUMAS          CLOUDY    62  53  72 E12       30.05R
GUYMON         CLOUDY    62  55  77 SE5       30.04R
HEREFORD       CLOUDY    66  58  74 E12       30.03R
$$

TXZ026-029-035-045-048-010500-
SOUTHERN PANHANDLE/SOUTH PLAINS/ROLLING PLAINS

CITY           SKY/WX    TMP DP  RH WIND       PRES   REMARKS
CHILDRESS      MOCLDY    69  65  86 NE10      29.96R
LUBBOCK        LGT RAIN  69  62  78 SE8       29.99R
SNYDER           N/A     68  65  89 SE6       29.91R
$$

TXZ052-054-060>062-072-078-127-140-154-169-010500-
PERMIAN BASIN/CONCHO VALLEY/BIG COUNTRY/EDWARDS PLATEAU

CITY           SKY/WX    TMP DP  RH WIND       PRES   REMARKS
ABILENE        CLOUDY    67  65  93 E7        29.91R
JUNCTION       PTCLDY    68  66  93 E6        29.88S
MIDLAND        LGT RAIN  66  60  81 NW21      29.98R
ODESSA         TSTM      62  58  86 N25G37    30.00R FOG
SAN ANGELO     CLOUDY    68  63  84 S9        29.87R
WINK           CLOUDY    67  60  78 E14       29.92R
$$

TXZ055-058-074-075-080-082-010500-
FAR WEST/SOUTHWEST MOUNTAINS/TRANS PECOS

CITY           SKY/WX    TMP DP  RH WIND       PRES   REMARKS
DRYDEN           N/A     70  61  73 W3        29.91R
EL PASO        MOCLDY    76  40  27 N15       29.92R
MARFA          CLOUDY    58  53  84 NE7       30.06F
PRESIDIO       RAIN      68  60  74 W8        29.98R
$$

TXZ014-016-019-021>030-083-010500
TEXAS TECH WEST TEXAS MESONET/TEXAS PANHANDLE/NORTHERN SOUTH PLAINS

CITY           SKY/WX    TMP DP  RH WIND       PRES   REMARKS
ABERNATHY 5ENE   N/A     66  57  74 NE22G29   30.03R
AMARILLO 9NNE    N/A     63  57  82 E8        30.03R
AMARILLO 7SSE    N/A     62  57  82 NE8       30.05R
AMHERST 1NE      N/A     67  62  82 S10       30.02R
BOOTLEG 11WNW    N/A     57  53  85 NW20      30.12R
CANADIAN 6E      N/A     62  56  80 NE12      29.99S
CAPROCK CYN SP   N/A     63  60  88 NW3       30.00R
CHILDRESS 2NNE   N/A     67  63  87 NE9       29.97R
CLARENDON 2WSW   N/A     65  60  84 E2        30.01R
CLAUDE 12SW      N/A     63  58  85 NE9       30.03R
DIMMITT 2NE      N/A     65  56  71 NE13      30.03R
FLOYDADA 2NNE    N/A     60  57  88 N3        30.01R
FRIONA 2NE       N/A     65  56  73 E12       30.06R
GOODLETT 3W      N/A     68  63  84 E9        29.95R
HART 3N          N/A     66  57  71 E15       30.02R
HEREFORD 2NW     N/A     65  53  65 E12       30.06R
MCLEAN 1E        N/A     64  57  79 NE7       30.01R
MEMPHIS 1NE      N/A     68  61  78 NE7       29.98R
MULESHOE 2SSW    N/A     62  55  76 S22G29    30.07R
OLTON 6S         N/A     69  60  73 E5        30.01R
PALO DURO SP     N/A     66  57  71 NE10      30.04R
PAMPA 2E         N/A     61  57  88 NE7       30.04S
PLAINVIEW 1S     N/A     62  57  83 SE13G21   30.02R
SILVERTON 7ESE   N/A     59  56  89 SW3       29.99S
TULIA 2ENE       N/A     63  59  86 E15       30.03
TURKEY 2WSW      N/A     65  62  91 N7        29.99R
UMBARGER 3NNE    N/A     63  56  76 NE10      30.05R
$$

TXZ033>036-039>041-045>048-010500
TEXAS TECH WEST TEXAS MESONET/SOUTH PLAINS

CITY           SKY/WX    TMP DP  RH WIND       PRES   REMARKS
AIKEN 3WSW       N/A     61  58  91 SE13      30.02R
ANDREWS 2NE      N/A     62  57  84 E10       30.01R
ANTON 6SSW       N/A     67  63  89 S5        30.01R
BROWNFIELD 2S  LGT RAIN  61  57  88 S8        30.02F
DENVR CTY 7WNW   N/A     61  53  76 E12       30.01R
GAIL 2ESE        N/A     68  63  83 NW12      29.94R
LAMESA 2SE       N/A     64  61  90 NW17G23   30.02R
LEVELLAND 4S     N/A     65  53  63 SW6       29.98S
LUBBOCK 3WNW     N/A     68  65  88 SE6       30.01R
MORTON 1ENE      N/A     63  57  80 W14G22    30.03R
ODONNELL 1N    LGT RAIN  63  59  85 W21G30    30.00R
PLAINS 3N        N/A     62  56  82 SE9       30.02R
RALLS 1SE        N/A     67  60  77 NE14      30.01R
REESE CENTER     N/A     67  64  90 SW1       30.01R
SEAGRAVES 1SW    N/A     63  55  74 E12G18    30.01R
SEMINOLE 2NNE    N/A     64  59  83 NE13G21   30.00R
SLATON 2NE       N/A     68  62  82 E3        30.00R
SNYDER 3E        N/A     67  64  91 SE6       29.90R
SUNDOWN 8SW      N/A     61  52  74 SE13      29.97
TAHOKA 3NNE      N/A     67  63  87 W10       30.01R
WOLFFORTH 6SSW   N/A     67  63  88 SW22G30   29.99S
$$

TXZ031-032-036>038-042>044-010500-
TEXAS TECH WEST TEXAS MESONET/ROLLING PLAINS

CITY           SKY/WX    TMP DP  RH WIND       PRES   REMARKS
ASPERMONT 3NE    N/A     66  63  90 NE8       29.92R
FLUVANNA 3WNW    N/A     69  60  72 NE1       29.95R
GUTHRIE 10WSW    N/A     68  64  86 NE7       29.92R
HASKELL 1NW      N/A     67  61  80 E6        29.93R
JAYTON 1SSE      N/A     68  64  85 NE6       29.90R
KNOX CITY 3NW    N/A     68  63  82 NE6       29.94R
LK A HENRY 1NW   N/A     68  63  84 NW6       29.94R
NORTHFIELD 1S    N/A     66  65  96 N6        29.97R
ODELL 4ENE       N/A     69  65  86 E6        29.97R
PADUCAH 10SW     N/A     68  65  89 NE6       29.94R
RRING SPRGS 3N   N/A     65  59  80 NE6       29.97R
SEYMOUR 3NW      N/A     67  63  88 NE6       29.94R
SPUR 1W          N/A     69  63  82 N5        29.94R
WEINERT 2NNE     N/A     67  64  90 E8        29.94R
WHITE RVR 6NE    N/A     67  61  82 N9        29.96R
$$

TXZ052-054-060>062-072-078-127-140-154-169-010500-
TEXAS TECH WEST TEXAS MESONET/PERMIAN BASIN/
CONCHO VALLEY/BIG COUNTRY/EDWARDS PLATEAU

CITY           SKY/WX    TMP DP  RH WIND       PRES   REMARKS
COYANOSA 2N      N/A     65  60  83 NW7       29.96R
JUNCTION 1SSW    N/A     69  66  91 NE7       29.91R
MERTZON 3NNE     N/A     67  61  80 SW3       29.92R
SAN ANGELO 7NW   N/A     65  62  87 S1        29.89R
STRLNG CT 4WSW   N/A     67  62  85 NW1       29.94R
ST LAWRNCE 5SW   N/A     69  59  70 SE7       29.95R
SWEETWATR 11SW   N/A     64  62  93 W6        29.93R
WALL 1E          N/A     66  62  85 SE10      29.88R
$$

TXZ055-058-074-075-080-082-010500-
TEXAS TECH WEST TEXAS MESONET/FAR WEST/SOUTHWEST MOUNTAINS/TRANS PECOS

CITY           SKY/WX    TMP DP  RH WIND       PRES   REMARKS
PRSMN GAP BBNP   N/A     70  56  61 NW13      29.96R
GUADLPE MTN NP   N/A     62  48  60 N6        30.09R
$$




USA.gov is the U.S. government's official web portal to all federal, state and local government web resources and services.